Flag for Norway Weather past 2 weeks in Hommelvik, Norway

Now
44 °F

Clear.


Feels Like: 44 °F
Forecast: 48 / 63 °F
Wind: 2 mph from East

Location: Trondheim / Vaernes

Current Time: Sep 17, 2014 at 6:11:10 AM

Latest Report: Sep 17, 2014 at 5:00 AM


Visibility: 16 mi

Pressure: 30.27 "Hg

Humidity: 96%

Dew point: 43 °F

Location of HommelvikLocation

Historic Weather in Hommelvik — Graph

°F

Hommelvik temperature yesterday

Maximum temperature yesterday: 59 °F (at 5:00 PM)
Minimum temperature yesterday: 42 °F (at 6:00 AM)
Average temperature yesterday: 51 °F

Past Weeks' High & Low Weather Summary

 TemperatureHumidityPressure
High76 °F (Sep 7, 4:00 PM)97% (Sep 3, 2:00 AM)30.52 "Hg (Sep 3, 2:00 AM)
Low42 °F (Sep 15, 7:00 AM)43% (Sep 7, 4:00 PM)29.85 "Hg (Sep 8, 4:00 PM)
Average56 °F81%30.19 "Hg
* Reported Sep 2 5:00 AM — Sep 17 5:00 AM, Hommelvik, Weather by CustomWeather, © 2014

Note: Actual official high and low records may vary slightly from our data, if they occured in-between our weather recording intervals... More about our weather records

Advertising

Hommelvik weather history for previous 24 hours

 ConditionsComfort  
Time TempWeatherWind HumidityBarometerVisibility
5:00 AM
Sep 17
44 °FClear.2 mph96%30.27 "Hg16 mi
4:00 AM45 °FClear.3 mph95%30.27 "Hg14 mi
3:00 AM45 °FClear.5 mph96%30.28 "Hg12 mi
2:00 AM46 °FClear.3 mph96%30.28 "Hg10 mi
1:00 AM47 °FClear.3 mph97%30.28 "Hg4 mi
12:00 AM47 °FClear.2 mph96%30.28 "Hg3 mi
11:00 PM
Sep 16
48 °FCool.3 mph95%30.27 "HgN/A
10:00 PM50 °FClear.2 mph96%30.27 "Hg4 mi
9:00 PM51 °FClear.1 mph93%30.27 "Hg9 mi
8:00 PM54 °FClear.1 mph88%30.26 "Hg12 mi
7:00 PM57 °FSunny.2 mph81%30.25 "Hg19 mi
6:00 PM58 °FSunny.3 mph80%30.26 "Hg19 mi
5:00 PM59 °FSunny.5 mph77%30.27 "Hg16 mi
4:00 PM58 °FSunny.6 mph80%30.28 "Hg14 mi
3:00 PM57 °FSunny.6 mph86%30.29 "Hg15 mi
2:00 PM56 °FSunny.6 mph80%30.31 "Hg17 mi
1:00 PM55 °FSunny.6 mph83%30.32 "Hg16 mi
12:00 PM54 °FSunny.5 mph85%30.33 "Hg15 mi
11:00 AM54 °FSunny.2 mph79%30.34 "Hg17 mi
10:00 AM50 °FSunny.1 mph84%30.35 "Hg25 mi
9:00 AM47 °FSunny.3 mph89%30.35 "Hg19 mi
8:00 AM45 °FSunny.3 mph93%30.36 "Hg15 mi
7:00 AM42 °FSunny.2 mph96%30.35 "Hg12 mi
6:00 AM42 °FClear.2 mph96%30.35 "Hg10 mi
Weather by CustomWeather, © 2014

See weather overviewHow to use our weather pages